[[{"header":{"parameterUnit":"m.s-1","parameterCategory":1,"la1":30.2991,"la2":30.254,"lo1":-89.0895,"lo2":-89.0444,"dy":0.0017,"dx":0.0017,"nx":28,"ny":28,"refTime":"2023-07-31T21:00:00:Z","depth":0,"parameterNumber":2,"parameterNumberName":"U-component_of_WINDS"},"data":[0,0,0,0,0,0,0,0,0,0,0,0,0,0,0,0,0,0,0,0,0,0,0,0,0,0,0,0,0,0,0,0,0,0,0,0,0,0,0,0,0,0,0,0,0,0,0,0,0,0,0,0,0,0,0,0,0,0,2.0108,2.0109,0,2.0191,2.0192,2.0193,2.0185,2.0184,2.0183,2.0182,2.0265,2.0269,2.0272,0,0,0,0,0,0,0,0,0,0,0,0,0,1.994,1.9943,2.0108,2.0109,2.011,2.0191,2.0192,2.0194,2.0186,2.0184,2.0183,2.0181,2.0264,2.0268,2.0272,0,0,0,0,0,0,0,0,0,0,0,0,0,2.0017,1.9944,2.0108,2.0116,2.0118,2.0191,2.0193,2.0194,2.0186,2.0184,2.0182,2.018,2.0263,2.0268,2.0273,2.0343,0,0,2.0289,2.0291,0,0,0,0,0,0,0,0,2.0013,2.0023,2.0114,2.0116,2.0118,2.0176,2.0164,2.0244,2.0186,2.016,2.0182,2.0179,2.0237,2.0244,2.0264,2.0347,2.0351,2.0289,2.0292,2.0294,2.0296,0,0,0,0,0,0,0,2.0007,2.002,2.0141,2.0115,2.0117,2.0115,2.0124,2.0179,2.0208,2.0162,2.0162,2.0172,2.0238,2.0259,2.0266,2.0352,2.0289,2.0293,2.0297,2.0299,2.0495,2.0497,0,0,0,0,0,0,2.0,2.0015,2.0138,2.0144,2.0059,2.0119,2.0129,2.0159,2.0208,2.0213,2.0173,2.0171,2.0251,2.026,2.0269,2.0353,2.0294,2.0299,2.0302,2.0493,2.0496,2.0498,0,0,0,0,0,0,1.9997,2.0011,2.0135,2.0079,2.0095,2.0124,2.0158,2.0162,2.0183,2.0216,2.0221,2.019,2.025,2.0262,2.0324,2.0356,2.0301,2.0306,2.049,2.0494,2.0497,2.0523,0,0,0,0,0,0,1.9992,2.001,2.0038,2.008,2.0098,2.019,2.016,2.0165,2.0192,2.019,2.0233,2.0238,2.0249,2.0317,2.033,2.0362,2.031,2.0488,2.0492,2.0496,2.0519,2.0526,2.0532,0,0,0,0,0,1.9986,2.0042,2.0039,2.0054,2.0133,2.0192,2.0202,2.0214,2.0195,2.0222,2.0243,2.0237,2.0351,2.0323,2.0338,2.0372,2.0486,2.0491,2.0495,2.0516,2.0525,2.0532,0,0,0,0,0,0,2.0002,2.0047,2.0045,2.0116,2.015,2.019,2.0225,2.0223,2.0263,2.0259,2.0272,2.0282,2.0345,2.0365,2.0334,2.0442,2.0415,2.0423,2.0426,2.0435,2.0442,2.0435,2.0314,0,0,0,0,0,2.0014,2.0058,2.0095,2.0154,2.0172,2.0196,2.0222,2.0228,2.0264,2.0278,2.0304,2.0338,2.0381,2.0409,2.0451,2.0522,2.0531,2.0553,2.056,2.0565,2.0571,2.0609,2.0619,2.0514,2.0514,2.0514,0,0,2.0038,2.0069,2.0096,2.0158,2.0186,2.023,2.0208,2.0257,2.029,2.0285,2.0346,2.0366,2.0405,2.0472,2.0503,2.049,2.0602,2.0571,2.0575,2.0578,2.0615,2.0625,2.0634,2.0517,2.0516,2.0516,0,0,2.0106,2.0134,2.0186,2.0213,2.0255,2.027,2.0283,2.0324,2.0337,2.0398,2.0395,2.0435,2.0509,2.0537,2.0561,2.0638,2.0633,2.0652,2.0686,2.0723,2.0731,2.0738,2.0765,2.0774,2.0658,2.0658,2.0658,0,2.0131,2.0199,2.0212,2.0262,2.0288,2.0287,2.0339,2.0365,2.0418,2.0436,2.0422,2.0515,2.0541,2.0614,2.0633,2.0652,2.0666,2.0646,2.0729,2.0736,2.0744,2.0769,2.0779,2.066,2.066,2.0659,2.0659,0,2.0227,2.0275,2.0312,2.0363,2.0394,2.0444,2.0464,2.0494,2.0498,2.0514,2.0576,2.0608,2.0655,2.0673,2.0678,2.0747,2.0737,2.0726,2.07,2.0755,2.0779,2.0789,2.0662,2.0662,2.0661,2.0661,0,0,2.0307,2.0365,2.0378,2.04,2.0446,2.0482,2.0532,2.0579,2.0604,2.064,2.0682,2.0745,2.0734,2.0761,2.0769,2.0801,2.0859,2.0785,2.0786,2.0797,2.0935,2.0942,2.0953,2.0856,2.0858,2.086,2.0931,0,2.0378,2.0466,2.0479,2.0557,2.06,2.0599,2.0642,2.0674,2.0691,2.073,2.0749,2.0793,2.0776,2.0792,2.0824,2.0845,2.0886,2.084,2.0893,2.0895,2.0882,2.0966,2.0974,2.104,2.0941,2.0943,2.0944,0,2.0472,2.0511,2.0594,2.0632,2.0651,2.069,2.0733,2.077,2.0806,2.0816,2.0847,2.085,2.09,2.0873,2.0942,2.091,2.0933,2.0946,2.0949,2.0953,2.0922,2.0971,2.1062,2.1071,2.0959,2.0958,2.0956,0,2.052,2.0593,2.0652,2.0671,2.0719,2.0745,2.0766,2.0801,2.0828,2.0866,2.0883,2.0927,2.095,2.0983,2.0998,2.0976,2.1065,2.1039,2.1074,2.1074,2.1092,2.109,2.1186,2.1109,2.1109,2.1108,2.1108,0,2.0597,2.0647,2.0674,2.0709,2.0765,2.0779,2.0833,2.0853,2.0884,2.0922,2.0925,2.0961,2.0978,2.1017,2.1029,2.1084,2.1095,2.1103,2.1105,2.1102,2.1101,2.1116,2.1112,2.1111,2.1111,2.111,2.111,0,2.0659,2.0679,2.0742,2.0782,2.0793,2.0832,2.0865,2.09,2.0916,2.0965,2.0978,2.1004,2.105,2.1068,2.1124,2.1131,2.1194,2.1193,2.1182,2.1182,2.1215,2.1211,2.1323,2.1337,2.1252,2.1253,2.1254,0,2.0707,2.0745,2.0788,2.0815,2.0836,2.0879,2.0907,2.0922,2.0951,2.0994,2.1023,2.1069,2.1106,2.1179,2.1202,2.1245,2.1244,2.128,2.1251,2.1246,2.1243,2.124,2.1243,2.1285,2.1286,2.1287,2.1288,0,2.0788,2.0796,2.0836,2.0879,2.0912,2.0947,2.0981,2.1002,2.1023,2.1054,2.1101,2.113,2.1187,2.1232,2.1276,2.1296,2.1295,2.1297,2.1307,2.1303,2.1295,2.1298,2.1195,2.1294,2.1293,2.1293,2.1293,2.1292,2.0843,2.0876,2.0912,2.0956,2.0984,2.1015,2.1049,2.107,2.1109,2.1157,2.1164,2.1214,2.1248,2.1307,2.1329,2.1368,2.1358,2.1373,2.1377,2.138,2.1381,2.129,2.1376,2.1376,2.1376,2.1376,2.1376,0,2.0923,2.0946,2.0987,2.1034,2.1068,2.1065,2.1102,2.1131,2.1175,2.1208,2.1244,2.1297,2.1341,2.1368,2.1412,2.1437,2.1438,2.1448,2.1446,2.145,2.1388,2.1374,2.1447,2.1447,2.1447,2.1447,2.1447,2.1447,2.0969,2.1025,2.1037,2.1106,2.1129,2.1178,2.1199,2.1228,2.1254,2.1313,2.1349,2.1367,2.1397,2.1443,2.1482,2.1489,2.1504,2.1515,2.1521,2.1462,2.1455,2.1448,2.1435,2.1519,2.1519,2.158,2.158,2.1581]},{"header":{"parameterUnit":"m.s-1","parameterCategory":1,"la1":30.2991,"la2":30.254,"lo1":-89.0895,"lo2":-89.0444,"dy":0.0017,"dx":0.0017,"nx":28,"ny":28,"refTime":"2023-07-31T21:00:00:Z","depth":0,"parameterNumber":3,"parameterNumberName":"V-component_of_WINDS"},"data":[0,0,0,0,0,0,0,0,0,0,0,0,0,0,0,0,0,0,0,0,0,0,0,0,0,0,0,0,0,0,0,0,0,0,0,0,0,0,0,0,0,0,0,0,0,0,0,0,0,0,0,0,0,0,0,0,0,0,1.6588,1.6588,0,1.657,1.657,1.657,1.6521,1.652,1.6519,1.6518,1.65,1.65,1.6501,0,0,0,0,0,0,0,0,0,0,0,0,0,1.658,1.6581,1.6588,1.6588,1.6588,1.657,1.657,1.657,1.6521,1.652,1.6519,1.6517,1.65,1.65,1.6501,0,0,0,0,0,0,0,0,0,0,0,0,0,1.6575,1.6581,1.6588,1.6561,1.6559,1.657,1.657,1.657,1.6521,1.652,1.6518,1.6517,1.6499,1.65,1.6501,1.6537,0,0,1.6503,1.6503,0,0,0,0,0,0,0,0,1.6576,1.6576,1.6566,1.6563,1.656,1.6546,1.656,1.6559,1.6522,1.6536,1.6518,1.6516,1.6516,1.6516,1.6516,1.6536,1.6535,1.6503,1.6504,1.6504,1.6504,0,0,0,0,0,0,0,1.6576,1.6576,1.6581,1.6565,1.6562,1.655,1.6548,1.656,1.6535,1.6534,1.6531,1.6529,1.6515,1.6515,1.6515,1.6535,1.6503,1.6504,1.6504,1.6505,1.6583,1.6585,0,0,0,0,0,0,1.658,1.6577,1.6582,1.6581,1.6564,1.6552,1.6549,1.6552,1.6535,1.6531,1.6531,1.6527,1.6515,1.6514,1.6514,1.6555,1.6504,1.6505,1.6505,1.6582,1.6584,1.6585,0,0,0,0,0,0,1.658,1.6581,1.6582,1.6578,1.6577,1.6553,1.6558,1.6553,1.6553,1.6532,1.6527,1.6536,1.6513,1.6513,1.6531,1.6553,1.6505,1.6506,1.658,1.6582,1.6585,1.6637,0,0,0,0,0,0,1.658,1.6581,1.6595,1.6578,1.6577,1.66,1.6559,1.6554,1.6555,1.655,1.6536,1.6532,1.6512,1.6531,1.6532,1.6554,1.6506,1.6578,1.6581,1.6584,1.6633,1.6641,1.6647,0,0,0,0,0,1.658,1.6611,1.6596,1.6597,1.6594,1.6602,1.6601,1.6578,1.6557,1.657,1.6556,1.6532,1.6551,1.6533,1.6534,1.6556,1.6576,1.658,1.6584,1.663,1.6639,1.6647,0,0,0,0,0,0,1.6631,1.6608,1.6592,1.6618,1.6612,1.6593,1.661,1.6589,1.6589,1.6585,1.6556,1.6553,1.6575,1.6568,1.6548,1.659,1.6559,1.6564,1.6594,1.6603,1.661,1.6611,1.6507,0,0,0,0,0,1.6645,1.6654,1.6633,1.6658,1.6656,1.6634,1.6636,1.6619,1.6611,1.6609,1.6596,1.6591,1.6595,1.6598,1.6601,1.6631,1.6627,1.6647,1.6654,1.666,1.6664,1.6679,1.6687,1.6598,1.6597,1.6597,0,0,1.6675,1.6664,1.6671,1.6668,1.6662,1.667,1.6632,1.6643,1.6649,1.6611,1.6627,1.6618,1.6609,1.6633,1.6643,1.6627,1.6688,1.6665,1.667,1.667,1.6683,1.6692,1.6699,1.66,1.66,1.6599,0,0,1.6734,1.6726,1.6745,1.674,1.673,1.6715,1.6719,1.6704,1.6696,1.6712,1.6683,1.669,1.6698,1.6693,1.6691,1.6747,1.6725,1.6749,1.6786,1.6801,1.6808,1.6814,1.6833,1.684,1.6753,1.6753,1.6753,0,1.6772,1.6784,1.6758,1.6771,1.6771,1.6736,1.6755,1.675,1.6743,1.6743,1.6725,1.6735,1.6726,1.6748,1.6762,1.6762,1.6766,1.675,1.6809,1.6814,1.682,1.6838,1.6845,1.6756,1.6755,1.6755,1.6755,0,1.6831,1.684,1.6857,1.6849,1.6851,1.6867,1.6843,1.6848,1.683,1.6817,1.6833,1.6822,1.6821,1.6825,1.6809,1.6845,1.6835,1.6814,1.6783,1.6832,1.6848,1.6855,1.676,1.6759,1.6758,1.6757,0,0,1.6921,1.6899,1.6905,1.6901,1.6888,1.6894,1.6908,1.6908,1.6912,1.6907,1.6918,1.6926,1.6905,1.6904,1.6886,1.6899,1.6943,1.6875,1.6875,1.6888,1.6981,1.6997,1.7005,1.6928,1.6929,1.693,1.6981,0,1.6976,1.6999,1.6976,1.7003,1.7011,1.6977,1.6989,1.6982,1.697,1.6974,1.6961,1.6966,1.6939,1.6938,1.6949,1.6935,1.6961,1.6931,1.6937,1.6938,1.694,1.7014,1.7031,1.7081,1.6988,1.6989,1.699,0,1.7042,1.704,1.7069,1.7052,1.7055,1.7066,1.7063,1.7068,1.7059,1.7049,1.7047,1.7025,1.7038,1.7008,1.7024,1.7004,1.7005,1.6999,1.7,1.7,1.6966,1.7015,1.7096,1.7103,1.7,1.6999,1.6998,0,1.7105,1.7109,1.7126,1.7124,1.7106,1.7114,1.7107,1.7097,1.7098,1.7095,1.7095,1.7094,1.7094,1.7094,1.7072,1.7052,1.7091,1.7059,1.7083,1.7083,1.7092,1.7092,1.7174,1.7094,1.7094,1.7094,1.7094,0,1.7168,1.7186,1.7154,1.7165,1.7184,1.7157,1.7177,1.7166,1.7157,1.7165,1.7136,1.7144,1.7115,1.712,1.7103,1.7119,1.7119,1.7111,1.7106,1.7113,1.7114,1.7114,1.7109,1.7096,1.7095,1.7095,1.7095,0,1.7241,1.722,1.7236,1.7217,1.7213,1.7228,1.7212,1.7221,1.7206,1.7216,1.7217,1.7194,1.7198,1.7176,1.7177,1.7165,1.7189,1.7179,1.7192,1.7189,1.7213,1.7211,1.7297,1.7307,1.7222,1.7222,1.7223,0,1.7282,1.7295,1.7278,1.728,1.7275,1.728,1.728,1.7254,1.7256,1.7246,1.7256,1.7258,1.7258,1.7265,1.7249,1.7249,1.7238,1.7268,1.7238,1.7244,1.7238,1.7237,1.7238,1.7274,1.7275,1.7276,1.7277,0,1.7357,1.7346,1.7348,1.7346,1.7347,1.7344,1.734,1.7344,1.7316,1.7319,1.7322,1.7322,1.7322,1.7324,1.732,1.7312,1.729,1.7287,1.7292,1.7299,1.7306,1.7302,1.7209,1.7285,1.7284,1.7283,1.7283,1.7283,1.7415,1.7425,1.7414,1.7417,1.741,1.7406,1.7413,1.7399,1.7402,1.7399,1.7384,1.739,1.738,1.7373,1.7367,1.7372,1.7357,1.7365,1.7367,1.7369,1.7373,1.7306,1.7371,1.7371,1.7371,1.737,1.737,0,1.7489,1.748,1.7482,1.7476,1.7478,1.7457,1.745,1.7453,1.7459,1.7451,1.7452,1.7455,1.7457,1.744,1.7439,1.7446,1.7435,1.7446,1.7445,1.7444,1.7387,1.7382,1.7455,1.7455,1.7455,1.7455,1.7454,1.7454,1.7527,1.7542,1.753,1.7541,1.7532,1.7538,1.7536,1.7532,1.7526,1.7531,1.7532,1.7521,1.7509,1.7507,1.7507,1.7502,1.7503,1.7518,1.7509,1.7456,1.7448,1.744,1.7435,1.7518,1.7518,1.7566,1.7566,1.7566]}]]